Location: Aldenham
(51.6667°N, 0.3500°W)
Time: 06:48:01
(UTC+00:00)

Cosmos 2061 Rocket - Pass Details

Date: 18 November 2025
Orbit: 964 x 1012 km, 82.9° (Epoch: 13 December)

Event Time Altitude Azimuth Distance (km) Brightness Sun altitude
Rises 17:32:09 0° 194° (SSW) 3,691 7.4 -12.9°
Reaches altitude 10° 17:34:41 10° 197° (SSW) 2,739 6.8 -13.3°
Maximum altitude 17:40:58 73° 282° (WNW) 1,024 4.3 -14.2°
Drops below altitude 10° 17:47:13 10° 7° (N) 2,727 6.1 -15.2°
Sets 17:49:44 0° 10° (N) 3,674 6.8 -15.6°
